Location: Fisher's Paradise
(46.5411°N, 80.0984°W)
Time: 12:26:11
(UTC-04:00)

Envisat - Visible Passes

Search period start: 15 October 2019 00:00
Search period end: 25 October 2019 00:00
Orbit: 764 x 766 km, 98.1° (Epoch: 15 October)

Date Brightness Start Highest point End Pass type
(mag) Time Alt. Az. Time Alt. Az. Time Alt. Az.
15 Oct 6.2 07:02:44 10° NE 07:05:46 16° E 07:08:48 10° SE visible
15 Oct 4.3 19:57:51 10° SSW 20:02:39 42° W 20:07:28 10° NNW visible
16 Oct 3.0 19:20:42 10° SSE 19:25:47 88° WSW 19:30:55 10° NNW visible
16 Oct 6.2 21:03:42 10° WSW 21:05:33 12° W 21:07:24 10° WNW visible
17 Oct 5.3 20:24:10 10° SSW 20:28:20 25° W 20:32:31 10° NW visible
18 Oct 6.5 06:52:14 10° ENE 06:54:21 12° E 06:56:28 10° ESE visible
18 Oct 3.9 19:46:23 10° S 19:51:20 52° W 19:56:19 10° NNW visible
19 Oct 3.0 19:09:28 10° SSE 19:14:31 76° ENE 19:19:37 10° N visible
19 Oct 6.0 20:51:15 10° WSW 20:54:07 15° W 20:57:01 10° NW visible
20 Oct 4.9 20:12:30 10° SSW 20:16:59 31° W 20:21:29 10° NNW visible
21 Oct 3.4 19:35:00 10° S 19:40:02 66° WSW 19:45:07 10° NNW visible
22 Oct 3.0 18:58:17 10° SSE 19:03:17 61° ENE 19:08:19 10° N visible
22 Oct 5.7 20:39:12 10° SW 20:42:44 19° W 20:46:17 10° NW visible
23 Oct 6.1 07:05:29 10° NE 07:08:48 17° E 07:12:06 10° SE visible
23 Oct 4.5 20:00:55 10° SSW 20:05:38 38° W 20:10:24 10° NNW visible
24 Oct 3.1 19:23:41 10° SSE 19:28:45 81° WSW 19:33:52 10° NNW visible
24 Oct 6.3 21:07:26 10° W 21:08:35 11° W 21:09:45 10° WNW visible
